| time (UTC) | temp F | wind direction | speed MPH | gust MPH | rain 1hr in | rain 24hr in | rain mn in | humidity % | barometer mb |
| 20260510140012 | 53 | 126 | 2.0 | 3.0 | 0.00 | 0.00 | 0.00 | 68 | 1012.9 |
| 20260510134513 | 54 | 335 | 0.0 | 3.0 | 0.00 | 0.00 | 0.00 | 65 | 1012.6 |
| 20260510133010 | 0 | 0.0 | 0.0 | 0.00 | 0.00 | 0.00 | 1012.4 | ||
| 20260510131506 | 0 | 0.0 | 0.0 | 0.00 | 0.00 | 0.00 | 1012.3 | ||
| 20260510130059 | 0 | 0.0 | 0.0 | 0.00 | 0.00 | 0.00 | 1012.4 | ||
| 20260510124601 | 0 | 0.0 | 0.0 | 0.00 | 0.00 | 0.00 | 1012.4 | ||
| 20260510123053 | 0 | 0.0 | 0.0 | 0.00 | 0.00 | 0.00 | 1012.2 | ||
| 20260510121546 | 0 | 0.0 | 0.0 | 0.00 | 0.00 | 0.00 | 1012.1 | ||
| 20260510120041 | 0 | 0.0 | 0.0 | 0.00 | 0.00 | 0.00 | 1012.1 | ||
| 20260510114541 | 0 | 0.0 | 0.0 | 0.00 | 0.00 | 0.00 | 1012.1 | ||
| 20260510113036 | 0 | 0.0 | 0.0 | 0.00 | 0.00 | 0.00 | 1012.1 | ||
| 20260510111529 | 0 | 0.0 | 0.0 | 0.00 | 0.00 | 0.00 | 1012.1 | ||
| 20260510110024 | 0 | 0.0 | 0.0 | 0.00 | 0.00 | 0.00 | 1012.3 | ||
| 20260510104530 | 0 | 0.0 | 0.0 | 0.00 | 0.00 | 0.00 | 1012.4 | ||
| 20260510103015 | 0 | 0.0 | 0.0 | 0.00 | 0.00 | 0.00 | 1012.5 | ||
| 20260510101512 | 54 | 149 | 2.0 | 9.0 | 0.00 | 0.00 | 0.00 | 63 | 1012.6 |
| 20260510100010 | 55 | 113 | 6.0 | 11.0 | 0.00 | 0.00 | 0.00 | 60 | 1012.7 |
| 20260510094519 | 57 | 52 | 8.0 | 13.0 | 0.00 | 0.00 | 0.00 | 56 | 1012.6 |
| 20260510093008 | 56 | 86 | 8.0 | 11.0 | 0.00 | 0.00 | 0.00 | 58 | 1012.7 |
| 20260510091506 | 55 | 91 | 8.0 | 10.0 | 0.00 | 0.00 | 0.00 | 59 | 1012.8 |
| 20260510090004 | 53 | 88 | 7.0 | 9.0 | 0.00 | 0.00 | 0.00 | 64 | 1013.1 |
| 20260510084604 | 53 | 98 | 7.0 | 8.0 | 0.00 | 0.00 | 0.00 | 64 | 1013.2 |
| 20260510083057 | 54 | 101 | 5.0 | 6.0 | 0.00 | 0.00 | 0.00 | 62 | 1013.2 |
| 20260510081559 | 55 | 89 | 2.0 | 7.0 | 0.00 | 0.00 | 0.00 | 60 | 1013.3 |
| 20260510080053 | 56 | 85 | 5.0 | 7.0 | 0.00 | 0.00 | 0.00 | 58 | 1013.3 |
| 20260510074551 | 57 | 95 | 4.0 | 6.0 | 0.00 | 0.00 | 0.00 | 56 | 1013.4 |
| 20260510073053 | 57 | 70 | 3.0 | 5.0 | 0.00 | 0.00 | 0.00 | 61 | 1013.4 |
| 20260510071546 | 54 | 81 | 5.0 | 7.0 | 0.00 | 0.00 | 0.00 | 63 | 1013.3 |
| 20260510070046 | 56 | 111 | 4.0 | 7.0 | 0.00 | 0.00 | 0.00 | 61 | 1013.3 |
| 20260510064540 | 57 | 113 | 9.0 | 11.0 | 0.00 | 0.00 | 0.00 | 58 | 1013.2 |
| 20260510063040 | 58 | 111 | 9.0 | 16.0 | 0.00 | 0.00 | 0.00 | 57 | 1013.2 |
| 20260510061538 | 59 | 88 | 10.0 | 14.0 | 0.00 | 0.00 | 0.00 | 57 | 1013.1 |
| 20260510060036 | 59 | 82 | 9.0 | 13.0 | 0.00 | 0.00 | 0.00 | 58 | 1013.2 |
| 20260510054542 | 59 | 96 | 11.0 | 15.0 | 0.00 | 0.00 | 0.00 | 59 | 1013.3 |
| 20260510053034 | 59 | 101 | 9.0 | 13.0 | 0.00 | 0.00 | 0.00 | 61 | 1013.7 |
| 20260510051534 | 59 | 96 | 9.0 | 11.0 | 0.00 | 0.00 | 0.00 | 61 | 1013.8 |
| 20260510050031 | 59 | 110 | 8.0 | 12.0 | 0.00 | 0.00 | 0.00 | 61 | 1013.9 |
| 20260510044536 | 60 | 89 | 8.0 | 11.0 | 0.00 | 0.00 | 0.00 | 60 | 1014.0 |
| 20260510043030 | 58 | 85 | 6.0 | 7.0 | 0.00 | 0.00 | 0.00 | 65 | 1014.3 |
| 20260510041530 | 58 | 91 | 4.0 | 6.0 | 0.00 | 0.00 | 0.00 | 66 | 1014.4 |
| 20260510040029 | 60 | 107 | 4.0 | 5.0 | 0.00 | 0.00 | 0.00 | 61 | 1014.2 |
| 20260510034528 | 61 | 97 | 2.0 | 4.0 | 0.00 | 0.00 | 0.00 | 57 | 1014.2 |
| 20260510033028 | 62 | 77 | 4.0 | 4.0 | 0.00 | 0.00 | 0.00 | 54 | 1014.2 |
| 20260510031545 | 63 | 86 | 4.0 | 7.0 | 0.00 | 0.00 | 0.00 | 51 | 1014.1 |
| 20260510030033 | 63 | 60 | 4.0 | 8.0 | 0.00 | 0.00 | 0.00 | 53 | 1013.9 |
| 20260510024525 | 65 | 66 | 5.0 | 9.0 | 0.00 | 0.00 | 0.00 | 51 | 1013.9 |
| 20260510023024 | 67 | 27 | 3.0 | 6.0 | 0.00 | 0.00 | 0.00 | 52 | 1014.1 |
| 20260510021529 | 69 | 1 | 3.0 | 6.0 | 0.00 | 0.00 | 0.00 | 45 | 1014.2 |
| 20260510020021 | 70 | 32 | 2.0 | 6.0 | 0.00 | 0.00 | 0.00 | 45 | 1014.2 |
| 20260510014519 | 70 | 29 | 2.0 | 4.0 | 0.00 | 0.00 | 0.00 | 45 | 1014.3 |
| 20260510013018 | 72 | 40 | 1.0 | 7.0 | 0.00 | 0.00 | 0.00 | 40 | 1014.5 |
| 20260510011517 | 72 | 70 | 2.0 | 7.0 | 0.00 | 0.00 | 0.00 | 42 | 1014.6 |
| 20260510010015 | 72 | 57 | 5.0 | 10.0 | 0.00 | 0.00 | 0.00 | 41 | 1014.6 |
| 20260510004514 | 73 | 30 | 3.0 | 9.0 | 0.00 | 0.00 | 0.00 | 39 | 1014.7 |
| 20260510003012 | 73 | 9 | 3.0 | 8.0 | 0.00 | 0.00 | 0.00 | 42 | 1014.9 |
| 20260510001510 | 73 | 25 | 2.0 | 8.0 | 0.00 | 0.00 | 0.00 | 39 | 1014.9 |
| 20260510000013 | 73 | 44 | 6.0 | 12.0 | 0.00 | 0.00 | 0.00 | 39 | 1015.1 |
| 20260509234509 | 74 | 60 | 5.0 | 14.0 | 0.00 | 0.00 | 0.00 | 36 | 1015.0 |
| 20260509233004 | 75 | 44 | 2.0 | 6.0 | 0.00 | 0.00 | 0.00 | 32 | 1015.3 |
| 20260509231610 | 74 | 345 | 4.0 | 10.0 | 0.00 | 0.00 | 0.00 | 34 | 1015.4 |
| 20260509231501 | 74 | 51 | 4.0 | 10.0 | 0.00 | 0.00 | 0.00 | 34 | 1015.5 |
| 20260509230159 | 73 | 36 | 3.0 | 10.0 | 0.00 | 0.00 | 0.00 | 34 | 1015.6 |
| 20260509224557 | 73 | 285 | 6.0 | 10.0 | 0.00 | 0.00 | 0.00 | 29 | 1015.7 |
| 20260509223055 | 74 | 330 | 2.0 | 7.0 | 0.00 | 0.00 | 0.00 | 29 | 1015.8 |
| 20260509221552 | 72 | 298 | 6.0 | 10.0 | 0.00 | 0.00 | 0.00 | 33 | 1016.0 |
| 20260509220050 | 74 | 353 | 3.0 | 6.0 | 0.00 | 0.00 | 0.00 | 32 | 1016.2 |
| 20260509214545 | 73 | 124 | 1.0 | 6.0 | 0.00 | 0.00 | 0.00 | 33 | 1016.3 |
| 20260509213045 | 72 | 219 | 4.0 | 7.0 | 0.00 | 0.00 | 0.00 | 34 | 1016.5 |
| 20260509211541 | 72 | 259 | 3.0 | 8.0 | 0.00 | 0.00 | 0.00 | 36 | 1016.6 |
| 20260509210049 | 71 | 101 | 0.0 | 7.0 | 0.00 | 0.00 | 0.00 | 40 | 1016.8 |
| 20260509204536 | 70 | 304 | 6.0 | 10.0 | 0.00 | 0.00 | 0.00 | 39 | 1017.0 |
| 20260509203035 | 70 | 311 | 4.0 | 8.0 | 0.00 | 0.00 | 0.00 | 39 | 1017.0 |
| 20260509201531 | 69 | 72 | 0.0 | 5.0 | 0.00 | 0.00 | 0.00 | 42 | 1017.3 |
| 20260509200031 | 68 | 319 | 4.0 | 7.0 | 0.00 | 0.00 | 0.00 | 44 | 1017.4 |
| 20260509194527 | 69 | 199 | 3.0 | 7.0 | 0.00 | 0.00 | 0.00 | 44 | 1017.6 |
| 20260509193024 | 67 | 53 | 2.0 | 12.0 | 0.00 | 0.00 | 0.00 | 46 | 1017.7 |
| 20260509191526 | 67 | 264 | 3.0 | 6.0 | 0.00 | 0.00 | 0.00 | 47 | 1018.1 |
| 20260509190020 | 66 | 224 | 4.0 | 9.0 | 0.00 | 0.00 | 0.00 | 49 | 1018.4 |
| 20260509184529 | 66 | 139 | 3.0 | 8.0 | 0.00 | 0.00 | 0.00 | 48 | 1018.5 |
| 20260509183016 | 64 | 330 | 3.0 | 9.0 | 0.00 | 0.00 | 0.00 | 49 | 1018.6 |
| 20260509181514 | 64 | 295 | 3.0 | 9.0 | 0.00 | 0.00 | 0.00 | 51 | 1018.9 |
| 20260509180013 | 64 | 321 | 6.0 | 11.0 | 0.00 | 0.00 | 0.00 | 51 | 1018.9 |
| 20260509174513 | 63 | 281 | 2.0 | 8.0 | 0.00 | 0.00 | 0.00 | 52 | 1019.0 |
| 20260509173044 | 63 | 269 | 4.0 | 7.0 | 0.00 | 0.00 | 0.00 | 51 | 1019.0 |
| 20260509171521 | 64 | 93 | 1.0 | 4.0 | 0.00 | 0.00 | 0.00 | 52 | 1019.0 |
| 20260509170012 | 62 | 89 | 3.0 | 6.0 | 0.00 | 0.00 | 0.00 | 53 | 1019.3 |
| 20260509164504 | 61 | 273 | 2.0 | 5.0 | 0.00 | 0.00 | 0.00 | 55 | 1019.5 |
| 20260509163003 | 60 | 176 | 2.0 | 6.0 | 0.00 | 0.00 | 0.00 | 56 | 1019.5 |
| 20260509161501 | 60 | 234 | 1.0 | 7.0 | 0.00 | 0.00 | 0.00 | 58 | 1019.7 |
| 20260509154559 | 59 | 273 | 2.0 | 5.0 | 0.00 | 0.00 | 0.00 | 58 | 1019.7 |
| 20260509153056 | 59 | 108 | 2.0 | 4.0 | 0.00 | 0.00 | 0.00 | 60 | 1019.5 |
| 20260509151615 | 58 | 124 | 1.0 | 3.0 | 0.00 | 0.00 | 0.00 | 60 | 1019.4 |
| 20260509150053 | 56 | 105 | 3.0 | 5.0 | 0.00 | 0.00 | 0.00 | 63 | 1019.5 |
| 20260509144547 | 55 | 77 | 3.0 | 6.0 | 0.00 | 0.00 | 0.00 | 65 | 1019.4 |
| 20260509143057 | 54 | 77 | 4.0 | 10.0 | 0.00 | 0.00 | 0.00 | 68 | 1019.3 |
| 20260509141550 | 53 | 113 | 3.0 | 13.0 | 0.00 | 0.00 | 0.00 | 68 | 1019.3 |